User: anonymous   Login
Location: Unspecified
(0.0000°N, 0.0000°E)
Time: 07:34:58
(UTC+00:00)
Language:

Sedsat-1 - Orbit

View from above orbital plane
View from above orbital plane
View from above satellite
View from above satellite

Ground track
Ground track

The orbit data is extracted from the following two-line orbital elements,

1 25509U 98061B   20336.73138024  .00000163  00000-0  18191-4 0  9991
2 25509  31.4337  96.7955 0346651 288.8032  67.5295 14.30438993155662
Epoch (UTC): 01 December 2020 17:33:11
Eccentricity: 0.0346651
inclination: 31.4337°
perigee height: 542 km
apogee height: 1039 km
right ascension of ascending node: 96.7955°
argument of perigee: 288.8032°
revolutions per day: 14.30438993
mean anomaly at epoch: 67.5295°
orbit number at epoch: 15566

The dashed part of the orbit path shows where the satellite is in the earth's shadow,  

DLR